User: anonymous   Login
Location: Unspecified
(0.0000°N, 0.0000°E)
Time: 13:10:45
(UTC+00:00)
Language:

MUNIN - Orbit

View from above orbital plane
View from above orbital plane
View from above satellite
View from above satellite

Ground track
Ground track

The orbit data is extracted from the following two-line orbital elements,

1 26621U 00075C   18347.90911250 -.00000013 +00000-0 -63762-5 0  9994
2 26621 095.3933 141.6529 0713990 114.6495 253.0679 13.04149282859398
Epoch (UTC): 13 December 2018 21:49:07
Eccentricity: 0.0713990
inclination: 95.3933°
perigee height: 701 km
apogee height: 1790 km
right ascension of ascending node: 141.6529°
argument of perigee: 114.6495°
revolutions per day: 13.04149282
mean anomaly at epoch: 253.0679°
orbit number at epoch: 85939

The dashed part of the orbit path shows where the satellite is in the earth's shadow,  

DLR